sat.trackr.live / text

‹ back to catalog

ICEYE-X50

NORAD 63255 · 2025-052AX

PAYLOAD ACTIVE UNKNOWN

§ Identity

Operator
Country
FIN
Launch date
2025-03-15
Launch site
AFWTR
Launch vehicle
Mass (kg)
RCS (m²)

External: N2YO · Heavens-Above · Gunter

§ Orbital elements

Epoch: 2026-09-22T23:37:04.836864Z

Period
96.29 min
Inclination
97.6736°
Eccentricity
0.0000692
Mean motion
14.95536019 rev/d
Perigee alt
580.2 km
Apogee alt
581.2 km
Semi-major
6,958.8 km
B*
1.3601e-4
RAAN
155.9376°
Arg perigee
175.4874°
Mean anomaly
184.6354°
Rev number
8,326

§ Raw data

ICEYE-X501 63255U 25052AX  26265.98408376  .00001451  00000+0  13601-3 0  99952 63255  97.6736 155.9376 0000692 175.4874 184.6354 14.95536019 83263

JSON: /api/v1/satellites/63255 · /tle

For live sub-satellite position, see the globe view (requires WebGL).

§ Visibility from observer

Set your observer location to see the next 7 days of passes ≥ 10°. The values pass through the URL so the page stays shareable.

No JS? Fill the form by hand. The geolocation button needs JavaScript.

§ Radio — SatNOGS DB

ModeDescriptionDownlinkUplink
FM S-band telemetry 2.264 GHz

1 transmitter · refreshed weekly from db.satnogs.org